CZ-6A DEB, 54449

Orbit data source: Space-Track

CZ-6A DEB, 54449 is space debris in SSO originally from a launch on Fri, 11 Nov 2022 UTC launched from the Taiyaun Space Center, China (TSC). Debris objects in space refer to the collection of defunct objects orbiting the Earth. Examples of debris include non-operational satellites, rocket bodies, and fragments generated from explosions, collisions, or faulty payload assembly.

Loading next visibility...
Identifier
54449, 2022-151FZ
Orbit
SSO
Country
Flag of CNCN / PRC
Related business
Manufacturer
SAST
Mission
Spacecraft
Bus & Motor
Unknown
Mass
Unknown
Launch date (UTC)
2022-11-11 (3 years ago)
Launch vehicle
Unknown
Launch site
Taiyaun Space Center, China (TSC)
Object type
Payload
Rocket body
Debris
Shape & HBR
Unknown shape, 0.1 m
Radar Cross Section
Small (<0.1 m²)

Expand to show TLE details & history
Last TLE update: 17 hours ago

TLE from 17 hours ago
0 CZ-6A DEB
1 54449U 22151FZ  25348.89624101  .00000538  00000-0  41732-3 0  9996
2 54449  98.9590 325.0196 0132297 218.6954 140.4672 13.92861999156770
Epoch: 2025-12-14T21:30Z
TLE epoch observation values (Epoch: 2025-12-14T21:30:35.223Z)
Latitude
-0.00002°
Longitude
-81.42974°
Altitude
996.464 km
Speed
7.316 km/s
True Right ascension
21h 40m 04s
True Declination
0° 00' 00"
Sunlit
Object was in daylight at epoch
Visualization orbit readout
Latitude
Unknown
Longitude
Unknown
Altitude
Unknown
Speed
Unknown
Apparent Right ascension
Unknown
Apparent Declination
Unknown
Sunlit
N/A
Visualization observer readout
Local Sidereal Time
13:19:56
Azimuth
Unknown
Elevation
Unknown
Doppler factor
Unknown
Orbital elements
Apogee altitude
1,012.321 km
Perigee altitude
819.328 km
Semi-major axis
7,293.962 km
Eccentricity
0.01323
Inclination
98.959°
RAAN
325.0196°
Arg. of periapsis
218.6954°
True anomaly
141.41997°
Mean anomaly
140.4672°
Eccentric anomaly
140.9448°
Mean motion
3.48416 °/min
Orbital period
103.32 mins
BSTAR
0.00041732
Loading maneuver chart data...
Computing Atmospheric mass density...
Loading historical data...
Loading historical data...
Loading historical data...
Loading historical data...
Loading historical data...
Loading historical data...
Loading historical data...

Documentation

Showing up to 5 results
|